Вернуться в каталог

STARLINK-37977

АктивенСвязьSSO
NORAD 69687·PAYLOAD·🇺🇸 United States

Запущен Jun 25, 2026 с Vandenberg Space Force Base

Loading…

Ближайшие Пролёты (ближайшие 24 часа)

TLE

СвежийSource: CelesTrak SupGP

Эпоха: Sep 15, 2026, 02:59 UTC

1 69687C 26145L   26258.12479167 -.00025242  00000+0 -78353-3 0  2587
2 69687  97.2844 104.8640 0001798  94.1511 110.6426 15.33453540    15

Отслеживайте STARLINK-37977 в реальном времени с AllMySat

Download on the App Store